This is the latest recevied weather packets stored in our database for station/object SR4DIG-13. If no packets are shown the sender has not sent any weather packets the latest 10 day(s).
| Time | Temp. | Humidity | Pressure | Rain* | Wind** | Luminosity | Snow |
|---|---|---|---|---|---|---|---|
| 1788446302 | 23.33° C | 44% | 1014.5 hPa | 0 mm | - | - | - |
| 1788446001 | 23.89° C | 43% | 1014.5 hPa | 0 mm | - | - | - |
| 1788445399 | 24.44° C | 41% | 1014.6 hPa | 0 mm | - | - | - |
| 1788445098 | 27.22° C | 37% | 1014.6 hPa | 0 mm | - | - | - |
| 1788444496 | 27.78° C | 37% | 1014.7 hPa | 0 mm | - | - | - |
| 1788444195 | 27.22° C | 37% | 1014.7 hPa | 0 mm | - | - | - |
| 1788443894 | 27.22° C | 37% | 1014.7 hPa | 0 mm | - | - | - |
| 1788443593 | 27.22° C | 36% | 1014.8 hPa | 0 mm | - | - | - |
| 1788443292 | 27.22° C | 36% | 1014.8 hPa | 0 mm | - | - | - |
| 1788442991 | 27.78° C | 36% | 1014.8 hPa | 0 mm | - | - | - |
| 1788442690 | 27.22° C | 37% | 1014.8 hPa | 0 mm | - | - | - |
| 1788442389 | 27.22° C | 38% | 1015 hPa | 0 mm | - | - | - |
| 1788441787 | 26.67° C | 37% | 1014.8 hPa | 0 mm | - | - | - |
| 1788441486 | 27.78° C | 38% | 1014.9 hPa | 0 mm | - | - | - |
| 1788441185 | 27.78° C | 37% | 1014.9 hPa | 0 mm | - | - | - |
| 1788440885 | 27.78° C | 38% | 1015.1 hPa | 0 mm | - | - | - |
| 1788440584 | 26.67° C | 39% | 1015.2 hPa | 0 mm | - | - | - |
| 1788440283 | 26.11° C | 40% | 1015.1 hPa | 0 mm | - | - | - |
| 1788439982 | 26.11° C | 38% | 1015 hPa | 0 mm | - | - | - |
| 1788439681 | 28.33° C | 36% | 1015.2 hPa | 0 mm | - | - | - |
| 1788439380 | 28.33° C | 37% | 1015.2 hPa | 0 mm | - | - | - |
| 1788439079 | 28.89° C | 37% | 1015.2 hPa | 0 mm | - | - | - |
| 1788438778 | 28.89° C | 35% | 1015.3 hPa | 0 mm | - | - | - |
| 1788438477 | 30° C | 35% | 1015.3 hPa | 0 mm | - | - | - |
| 1788438166 | 29.44° C | 35% | 1015.5 hPa | 0 mm | - | - | - |
* Rain latest hour (hover to see other rain measurements)
** Current wind speed in m/s (hover to see current wind gust speed)